Tiempo cada hora Abrosimovo

Hoy, 25 Octubre, Domingo

Tiempo Temperatura Precipitaciones Viento Presión Humedad
00:00 +10°C° 0.2 mm 4 mps 739 mmHg 93%
01:00 +10°C° 0.2 mm 4 mps 739 mmHg 92%
02:00 +9°C° 0.2 mm 3 mps 739 mmHg 91%
03:00 +8°C° 0 mm 3 mps 740 mmHg 93%
04:00 +8°C° 0 mm 3 mps 740 mmHg 94%
05:00 +7°C° 0 mm 3 mps 741 mmHg 95%
06:00 +7°C° 0 mm 3 mps 741 mmHg 94%
07:00 +7°C° 0 mm 3 mps 742 mmHg 93%
08:00 +7°C° 0 mm 4 mps 742 mmHg 91%
09:00 +8°C° 0 mm 4 mps 743 mmHg 87%
10:00 +8°C° 0 mm 4 mps 743 mmHg 84%
11:00 +10°C° 0 mm 4 mps 743 mmHg 80%
12:00 +10°C° 0 mm 4 mps 744 mmHg 80%
13:00 +10°C° 0 mm 4 mps 744 mmHg 81%
14:00 +10°C° 0 mm 3 mps 744 mmHg 81%
15:00 +10°C° 0 mm 3 mps 744 mmHg 82%
16:00 +10°C° 0 mm 2 mps 745 mmHg 83%
17:00 +9°C° 0 mm 2 mps 745 mmHg 84%
18:00 +10°C° 0 mm 1 mps 745 mmHg 84%
19:00 +10°C° 0 mm 1 mps 746 mmHg 84%
20:00 +10°C° 0 mm 1 mps 746 mmHg 84%
21:00 +10°C° 0 mm 1 mps 747 mmHg 84%
22:00 +10°C° 0 mm 1 mps 747 mmHg 83%
23:00 +10°C° 0 mm 1 mps 747 mmHg 83%

Mañana, 26 Octubre, Lunes

Tiempo Temperatura Precipitaciones Viento Presión Humedad
00:00 +10°C° 0 mm 1 mps 747 mmHg 83%
01:00 +10°C° 0 mm 1 mps 747 mmHg 82%
02:00 +10°C° 0 mm 1 mps 748 mmHg 82%
03:00 +10°C° 0 mm 1 mps 748 mmHg 81%
04:00 +10°C° 0 mm 1 mps 748 mmHg 81%
05:00 +10°C° 0 mm 1 mps 748 mmHg 80%
06:00 +10°C° 0 mm 1 mps 748 mmHg 79%
07:00 +9°C° 0 mm 0 mps 748 mmHg 78%
08:00 +9°C° 0 mm 0 mps 749 mmHg 77%
09:00 +11°C° 0 mm 1 mps 749 mmHg 73%
10:00 +12°C° 0 mm 1 mps 749 mmHg 68%
11:00 +13°C° 0 mm 1 mps 749 mmHg 64%
12:00 +13°C° 0 mm 2 mps 749 mmHg 64%
13:00 +13°C° 0 mm 2 mps 749 mmHg 64%
14:00 +13°C° 0 mm 2 mps 749 mmHg 64%
15:00 +12°C° 0 mm 2 mps 749 mmHg 68%
16:00 +10°C° 0 mm 2 mps 749 mmHg 72%
17:00 +10°C° 0 mm 2 mps 749 mmHg 76%
18:00 +9°C° 0 mm 2 mps 749 mmHg 77%
19:00 +9°C° 0 mm 2 mps 749 mmHg 79%
20:00 +8°C° 0 mm 2 mps 749 mmHg 80%
21:00 +8°C° 0 mm 2 mps 750 mmHg 82%
22:00 +8°C° 0 mm 2 mps 750 mmHg 83%
23:00 +8°C° 0 mm 2 mps 750 mmHg 85%

Pasado mañana, 27 Octubre, Martes

Tiempo Temperatura Precipitaciones Viento Presión Humedad
00:00 +7°C° 0 mm 2 mps 750 mmHg 86%
01:00 +7°C° 0 mm 2 mps 750 mmHg 88%
02:00 +7°C° 0 mm 2 mps 750 mmHg 90%
03:00 +7°C° 0 mm 2 mps 750 mmHg 90%
04:00 +6°C° 0 mm 2 mps 750 mmHg 91%
05:00 +6°C° 0 mm 2 mps 750 mmHg 91%
06:00 +5°C° 0 mm 3 mps 750 mmHg 89%
07:00 +7°C° 0 mm 3 mps 750 mmHg 86%
08:00 +7°C° 0 mm 3 mps 751 mmHg 84%
09:00 +8°C° 0 mm 3 mps 751 mmHg 79%
10:00 +8°C° 0 mm 4 mps 751 mmHg 74%
11:00 +11°C° 0 mm 4 mps 751 mmHg 69%
12:00 +11°C° 0 mm 4 mps 751 mmHg 69%
13:00 +11°C° 0 mm 4 mps 750 mmHg 68%
14:00 +11°C° 0 mm 4 mps 750 mmHg 68%
15:00 +10°C° 0 mm 4 mps 750 mmHg 73%
16:00 +9°C° 0 mm 3 mps 750 mmHg 77%
17:00 +8°C° 0 mm 3 mps 750 mmHg 82%
18:00 +8°C° 0 mm 3 mps 750 mmHg 82%
19:00 +7°C° 0 mm 3 mps 751 mmHg 83%
20:00 +6°C° 0 mm 4 mps 751 mmHg 83%
21:00 +6°C° 0 mm 4 mps 751 mmHg 82%
22:00 +6°C° 0 mm 4 mps 751 mmHg 82%
23:00 +5°C° 0 mm 4 mps 751 mmHg 82%

28 Octubre, Miércoles

Tiempo Temperatura Precipitaciones Viento Presión Humedad
00:00 +5°C° 0 mm 4 mps 751 mmHg 82%
01:00 +5°C° 0 mm 3 mps 751 mmHg 82%
02:00 +5°C° 0 mm 3 mps 751 mmHg 82%
03:00 +4°C° 0 mm 3 mps 751 mmHg 82%
04:00 +4°C° 0 mm 4 mps 751 mmHg 82%
05:00 +4°C° 0 mm 4 mps 751 mmHg 81%
06:00 +4°C° 0 mm 4 mps 751 mmHg 80%
07:00 +5°C° 0 mm 4 mps 751 mmHg 78%
08:00 +5°C° 0 mm 4 mps 751 mmHg 77%
09:00 +6°C° 0 mm 4 mps 751 mmHg 73%
10:00 +8°C° 0 mm 5 mps 751 mmHg 69%
11:00 +9°C° 0 mm 5 mps 751 mmHg 64%
12:00 +9°C° 0 mm 5 mps 751 mmHg 63%
13:00 +11°C° 0 mm 4 mps 751 mmHg 61%
14:00 +11°C° 0 mm 4 mps 751 mmHg 60%
15:00 +10°C° 0 mm 4 mps 751 mmHg 64%
16:00 +8°C° 0 mm 4 mps 750 mmHg 68%
17:00 +7°C° 0 mm 3 mps 750 mmHg 72%
18:00 +7°C° 0 mm 3 mps 750 mmHg 72%
19:00 +6°C° 0 mm 4 mps 751 mmHg 72%
20:00 +5°C° 0 mm 4 mps 751 mmHg 71%
21:00 +5°C° 0 mm 3 mps 751 mmHg 70%
22:00 +4°C° 0 mm 3 mps 751 mmHg 69%
23:00 +4°C° 0 mm 3 mps 751 mmHg 67%

29 Octubre, Jueves

Tiempo Temperatura Precipitaciones Viento Presión Humedad
00:00 +3°C° 0 mm 3 mps 750 mmHg 65%
01:00 +3°C° 0 mm 3 mps 750 mmHg 62%
02:00 +2°C° 0 mm 3 mps 750 mmHg 59%
03:00 +2°C° 0 mm 3 mps 750 mmHg 58%
04:00 +2°C° 0 mm 3 mps 750 mmHg 58%
05:00 +1°C° 0 mm 3 mps 750 mmHg 57%
06:00 +2°C° 0 mm 3 mps 750 mmHg 57%
07:00 +2°C° 0 mm 3 mps 750 mmHg 56%
08:00 +1°C° 0 mm 4 mps 750 mmHg 56%
09:00 +3°C° 0 mm 4 mps 750 mmHg 55%
10:00 +4°C° 0 mm 4 mps 749 mmHg 54%
11:00 +6°C° 0 mm 4 mps 749 mmHg 53%
12:00 +6°C° 0 mm 4 mps 749 mmHg 54%
13:00 +7°C° 0 mm 3 mps 749 mmHg 56%
14:00 +8°C° 0 mm 3 mps 748 mmHg 57%
15:00 +7°C° 0 mm 3 mps 748 mmHg 61%
16:00 +5°C° 0 mm 3 mps 748 mmHg 66%
17:00 +4°C° 0 mm 3 mps 748 mmHg 71%
18:00 +5°C° 0 mm 2 mps 748 mmHg 72%
19:00 +5°C° 0 mm 2 mps 748 mmHg 74%
20:00 +5°C° 0 mm 2 mps 748 mmHg 75%
21:00 +4°C° 0 mm 2 mps 748 mmHg 77%
22:00 +4°C° 0 mm 2 mps 748 mmHg 78%
23:00 +4°C° 0 mm 2 mps 748 mmHg 80%

30 Octubre, Viernes

Tiempo Temperatura Precipitaciones Viento Presión Humedad
00:00 +4°C° 0 mm 2 mps 748 mmHg 82%
01:00 +4°C° 0 mm 1 mps 747 mmHg 83%
02:00 +4°C° 0 mm 1 mps 747 mmHg 85%
03:00 +4°C° 0 mm 1 mps 747 mmHg 86%
04:00 +4°C° 0 mm 1 mps 747 mmHg 88%
05:00 +4°C° 0 mm 1 mps 747 mmHg 89%
06:00 +4°C° 0 mm 1 mps 747 mmHg 88%
07:00 +5°C° 0 mm 1 mps 747 mmHg 87%
08:00 +5°C° 0 mm 1 mps 747 mmHg 85%
09:00 +6°C° 0 mm 1 mps 747 mmHg 79%
10:00 +8°C° 0 mm 1 mps 747 mmHg 74%
11:00 +9°C° 0 mm 1 mps 747 mmHg 68%
12:00 +10°C° 0 mm 1 mps 747 mmHg 66%
13:00 +10°C° 0 mm 1 mps 747 mmHg 65%
14:00 +10°C° 0 mm 1 mps 747 mmHg 63%
15:00 +9°C° 0 mm 1 mps 747 mmHg 69%
16:00 +8°C° 0 mm 1 mps 747 mmHg 74%
17:00 +7°C° 0 mm 1 mps 748 mmHg 80%
18:00 +7°C° 0 mm 1 mps 748 mmHg 82%
19:00 +6°C° 0 mm 1 mps 748 mmHg 83%
20:00 +6°C° 0 mm 1 mps 748 mmHg 85%
21:00 +6°C° 0 mm 1 mps 748 mmHg 87%
22:00 +6°C° 0 mm 1 mps 748 mmHg 89%
23:00 +5°C° 0 mm 1 mps 748 mmHg 91%
Mostrar más

Necesitamos Su Consentimiento

Meteoprog y nuestros Proveedores de Servicios pueden almacenar y acceder a sus datos personales como cookies, identificadores de dispositivo u otras tecnologías similares de su dispositivo y procesar dichos datos para personalizar contenido y anuncios, además de ofrecer funciones de redes sociales y analizar el tráfico.

  • Almacenar y/o acceder a información en su dispositivo

    Se puede almacenar o acceder a cookies, identificadores de dispositivo u otra información de su dispositivo para los fines anteriormente indicados.

  • Anuncios y contenido personalizados, medición de anuncios y contenido, percepciones del público, y desarrollo de productos

    Los anuncios y el contenido pueden personalizarse en base a su perfil. Se pueden añadir más datos para personalizar mejor los anuncios y contenidos. Se puede medir el rendimiento de los anuncios y contenidos. Se puede obtener la percepción sobre el público que ha visto los anuncios y contenidos. Dichos datos pueden usarse para desarrollar o mejorar la experiencia del usuario, sistemas y software.

Al hacer clic en ‘Estoy De Acuerdo’ usted permitirá el uso de las cookies, identificadores de dispositivo, balizas web u otras tecnologías similares indicadas. Su configuración puede cambiarse desde el navegador de su dispositivo.

Para ciertos fines, los intereses legítimos pueden ser considerados por encima del consentimiento. Puede leer más sobre ello en nuestra Política de Privacidad y Cookies.